Regional Weather Roundup
Issued by NWS Cleveland, OH

Home | Current Version | Previous Version | Graphics & Text | Print | Product List | Glossary On
Versions: 1 2 3 4 5 6 7 8 9 10 11 12 13 14 15 16 17 18 19 20 21 22 23 24 25 26 27 28 29 30 31 32 33 34 35 36 37 38 39 40 41 42 43 44 45 46 47 48 49 50
000
ASUS41 KCLE 131402
RWRCLE
OHIO REGIONAL WEATHER ROUNDUP
NATIONAL WEATHER SERVICE CLEVELAND, OH
900 AM EST SAT FEB 13 2016

NOTE: "FAIR" INDICATES FEW OR NO CLOUDS BELOW 12,000 FEET WITH NO
SIGNIFICANT WEATHER AND/OR OBSTRUCTIONS TO VISIBILITY.

OHZ001>008-015>018-024>027-034-035-043-044-131500-
   NORTHWEST OHIO

CITY           SKY/WX    TMP DP  RH WIND       PRES   REMARKS
DEFIANCE       MOSUNNY    8  -3  61 W7        30.48R WCI  -3
FINDLAY        MOSUNNY    7  -3  64 W10       30.45R WCI  -8
TOLEDO EXPRESS SUNNY      5  -4  66 W14       30.45R WCI -12
TOLEDO EXEC    SUNNY      8  -4  58 W9        30.46R WCI  -5
LIMA           CLOUDY     6  -4  63 W12       30.45R WCI  -9
$$

OHZ009>014-019>023-028>033-038-089-131500-
   NORTHEAST OHIO

CITY           SKY/WX    TMP DP  RH WIND       PRES   REMARKS
CLE-HOPKINS    PTSUNNY    8  -6  52 NW14      30.42R WCI  -8
CLE-LAKEFRONT  CLOUDY    11  -2  56 NW23G33   30.39R WCI  -9
CUY CO. ARPT   PTSUNNY   10 N/A N/A N16G28    30.36R WCI  -7
LORAIN-ELYRIA  MOSUNNY    8  -5  55 N12       30.41R WCI  -7
ASHTABULA      FLURRIES   7  -2  66 NW12G25   30.31R WCI  -8
AKRON-CANTON   PTSUNNY    5  -5  63 NW14      30.33R WCI -12
WOOSTER        CLOUDY     3  -4  72 NW12      30.38R HAZE    WCI -13
MANSFIELD      SUNNY      3  -8  60 NW8       30.37R WCI -10
YOUNGSTOWN     LGT SNOW   7  -1  70 NW15      30.28R BLWGSNOWWCI -10
$$

OHZ042-051>053-060>062-070>072-077>081-131500-
  SOUTHWEST OHIO

CITY           SKY/WX    TMP DP  RH WIND       PRES   REMARKS
CINC-COVINGTON PTSUNNY   11   3  70 NW10      30.51R WCI  -3
CINC-LUNKEN    MOSUNNY   13   1  59 N8        30.57R WCI   2
HAMILTON       SUNNY     11  -1  58 NW3       30.55R
DAYTON         MOSUNNY    7  -5  57 NW9       30.49R WCI  -7
WRIGHT-PAT AFB SUNNY      7  -6  55 NW10      30.49R WCI  -7
DAYTON GENERAL MOSUNNY    8  -7  50 NW8       30.48R WCI  -4
WILMINGTON     MOSUNNY    8  -4  58 NW7       30.47R WCI  -3
$$

OHZ036-037-039>041-045>050-054>059-063>069-073>076-082>088-131500-
  CENTRAL AND SOUTHEAST OHIO

CITY           SKY/WX    TMP DP  RH WIND       PRES   REMARKS
COLUMBUS       SUNNY      6  -9  50 NW13      30.46R WCI -10
OSU AIRPORT    SUNNY      6  -6  57 W10       30.46R WCI  -9
BOLTON FIELD   SUNNY      7  -6  56 NW10      30.46R WCI  -8
RICKENBACK AFB NOT AVBL
NEWARK         SUNNY      7  -7  52 NW10      30.44R WCI  -8
MARION         SUNNY      6  -6  57 NW12      30.43R WCI  -9
LANCASTER      SUNNY      8  -6  52 NW14      30.46R WCI  -8
ZANESVILLE     SUNNY      8  -8  48 NW10      30.42R WCI  -6
NEW PHILLY     SUNNY      6  -4  63 NW12      30.40R WCI  -9
$$



USA.gov is the U.S. government's official web portal to all federal, state and local government web resources and services.